[[{"header":{"parameterUnit":"m.s-1","parameterCategory":1,"la1":30.2992,"la2":30.254,"lo1":-89.0895,"lo2":-89.0443,"dy":0.0025,"dx":0.0025,"nx":19,"ny":19,"refTime":"2026-03-08T03:00:00:Z","depth":0,"parameterNumber":2,"parameterNumberName":"U-component_of_WINDS"},"data":[0,0,0,1.8417,1.8418,1.8487,1.8487,1.8569,1.857,0,0,0,0,0,0,0,0,0,0,0,1.8391,1.8391,1.8417,1.8418,1.8487,1.8487,1.8569,1.857,0,0,0,0,0,0,0,0,0,0,0,1.839,1.8391,1.8391,1.8418,1.8486,1.8487,1.8569,1.852,0,0,0,0,0,0,0,0,0,0,1.8454,1.8423,1.8391,1.8391,1.8419,1.8486,1.8487,1.8517,1.8523,1.8535,0,1.8542,0,1.8557,1.8574,1.8575,0,0,0,1.8423,1.8419,1.8443,1.8391,1.8419,1.8486,1.8457,1.852,1.8526,1.8542,1.8543,1.8546,1.8558,1.8575,1.8575,1.8623,1.8623,0,0,1.842,1.84,1.8438,1.8446,1.8432,1.8455,1.8459,1.8524,1.8525,1.8543,1.8548,1.8559,1.8575,1.8576,1.8623,1.8623,0,0,0,1.8405,1.8397,1.842,1.8443,1.8455,1.8457,1.8462,1.8522,1.8531,1.8549,1.856,1.8576,1.8577,1.8623,1.8623,1.8603,0,0,0,1.8403,1.8389,1.8418,1.8406,1.8454,1.8489,1.8458,1.8526,1.8534,1.856,1.8576,1.8577,1.8623,1.8623,1.8604,1.8597,0,0,0,1.8388,1.8387,1.8395,1.8405,1.8434,1.8488,1.8501,1.8529,1.8541,1.8575,1.8578,1.8623,1.8623,1.8604,1.8598,1.8605,0,0,0,1.8367,1.8376,1.8394,1.8409,1.8433,1.8475,1.8501,1.8533,1.856,1.8576,1.8623,1.8623,1.8605,1.8599,1.8605,1.8606,1.8605,0,0,1.8368,1.8376,1.8386,1.8404,1.8437,1.8466,1.8497,1.8541,1.8563,1.8603,1.8604,1.8604,1.8598,1.8605,1.8603,1.8602,0,0,0,1.838,1.8388,1.8401,1.8424,1.8457,1.8485,1.8526,1.8542,1.8577,1.8578,1.8608,1.8606,1.861,1.8612,1.8611,1.8617,1.8623,1.8623,1.8623,1.8354,1.838,1.84,1.8436,1.8459,1.8501,1.8523,1.8553,1.8574,1.8581,1.8593,1.8588,1.8589,1.8589,1.8594,1.8595,1.8595,1.8595,1.8595,1.8358,1.8373,1.8401,1.843,1.8459,1.8485,1.8528,1.8542,1.8572,1.8581,1.8587,1.8595,1.8586,1.8593,1.8594,1.8594,1.8594,1.8595,1.8595,1.8344,1.8356,1.8375,1.8413,1.844,1.8477,1.8504,1.853,1.8555,1.8561,1.8577,1.8577,1.8582,1.8567,1.8567,1.8567,1.8567,1.8567,1.8567,1.8321,1.8344,1.8362,1.8399,1.8418,1.8447,1.8491,1.8512,1.8542,1.8559,1.856,1.8581,1.858,1.8579,1.8566,1.8566,1.8566,1.8566,1.8566,1.8316,1.8321,1.835,1.8369,1.8415,1.8441,1.8475,1.8515,1.8536,1.855,1.857,1.8565,1.8575,1.8576,1.8576,1.8563,1.8563,1.8563,1.8563,1.8304,1.8311,1.8347,1.8377,1.8409,1.8443,1.8477,1.8512,1.855,1.8566,1.8572,1.8574,1.8574,1.8584,1.8585,1.8585,1.8575,1.8575,1.8575,1.8302,1.8314,1.8337,1.8372,1.8411,1.8444,1.8478,1.8513,1.8558,1.8576,1.8579,1.8578,1.8582,1.8581,1.8599,1.86,1.8601,0,0]},{"header":{"parameterUnit":"m.s-1","parameterCategory":1,"la1":30.2992,"la2":30.254,"lo1":-89.0895,"lo2":-89.0443,"dy":0.0025,"dx":0.0025,"nx":19,"ny":19,"refTime":"2026-03-08T03:00:00:Z","depth":0,"parameterNumber":3,"parameterNumberName":"V-component_of_WINDS"},"data":[0,0,0,2.8285,2.8285,2.8275,2.8275,2.8258,2.8258,0,0,0,0,0,0,0,0,0,0,0,2.8287,2.8287,2.8285,2.8285,2.8275,2.8275,2.8258,2.8258,0,0,0,0,0,0,0,0,0,0,0,2.8287,2.8287,2.8287,2.8285,2.8275,2.8275,2.8258,2.8267,0,0,0,0,0,0,0,0,0,0,2.8277,2.8278,2.8287,2.8287,2.8285,2.8275,2.8275,2.8267,2.8266,2.8261,0,2.8258,0,2.8258,2.8256,2.8256,0,0,0,2.8285,2.8279,2.8277,2.8287,2.8285,2.8275,2.828,2.8267,2.8266,2.826,2.8258,2.8257,2.8257,2.8256,2.8256,2.8232,2.8232,0,0,2.8286,2.8284,2.8278,2.8277,2.8279,2.828,2.8279,2.8266,2.8262,2.8257,2.8257,2.8257,2.8256,2.8256,2.8232,2.8232,0,0,0,2.8287,2.8284,2.8284,2.8277,2.8276,2.828,2.8279,2.8263,2.8263,2.8256,2.8257,2.8256,2.8256,2.8232,2.8232,2.8224,0,0,0,2.8288,2.8285,2.8284,2.8282,2.8276,2.8269,2.8276,2.8264,2.8263,2.8257,2.8256,2.8256,2.8232,2.8232,2.8225,2.822,0,0,0,2.8288,2.8285,2.8284,2.8282,2.8278,2.827,2.8269,2.8264,2.8263,2.8256,2.8256,2.8232,2.8232,2.8225,2.8221,2.8215,0,0,0,2.8287,2.8275,2.8283,2.827,2.8278,2.8266,2.8269,2.8259,2.8253,2.8256,2.8232,2.8232,2.8225,2.8222,2.8215,2.8209,2.8206,0,0,2.827,2.8273,2.8265,2.8273,2.8259,2.8268,2.8252,2.8247,2.8247,2.8237,2.8236,2.8225,2.8221,2.8215,2.8191,2.8188,0,0,0,2.8259,2.8254,2.8251,2.8246,2.8243,2.8241,2.8239,2.8238,2.8229,2.8242,2.822,2.8218,2.8214,2.8211,2.821,2.8207,2.823,2.823,2.823,2.8231,2.8235,2.8223,2.8226,2.8221,2.8221,2.8217,2.8215,2.8217,2.8213,2.8209,2.8195,2.8191,2.819,2.8187,2.8206,2.8206,2.8206,2.8206,2.8207,2.82,2.8207,2.8199,2.8202,2.8194,2.8195,2.8197,2.819,2.8197,2.8193,2.82,2.8187,2.8185,2.8206,2.8206,2.8206,2.8206,2.8206,2.8188,2.8186,2.8186,2.8182,2.8178,2.8181,2.8175,2.8178,2.8181,2.8178,2.8175,2.8175,2.8176,2.8177,2.8176,2.8176,2.8176,2.8176,2.8176,2.8169,2.817,2.8166,2.8165,2.8164,2.8162,2.8164,2.8162,2.8161,2.8164,2.8164,2.8168,2.8186,2.819,2.8175,2.8176,2.8176,2.8176,2.8176,2.8143,2.815,2.8143,2.8142,2.8143,2.814,2.8145,2.8142,2.8141,2.8138,2.8144,2.8157,2.8158,2.816,2.8164,2.8143,2.8143,2.8143,2.8143,2.8127,2.813,2.8125,2.8124,2.8123,2.8128,2.812,2.8123,2.8125,2.8125,2.8129,2.8134,2.8136,2.8137,2.8139,2.8142,2.8117,2.8117,2.8117,2.8112,2.8115,2.8108,2.8113,2.8115,2.8116,2.8109,2.8107,2.8111,2.8116,2.8125,2.8127,2.8135,2.8138,2.8141,2.8144,2.815,0,0]}]]